DateTimeUTC,F1_A11,F1_S11,BsB_S11,BsG_S11,BsR_S11,BbsB_S11,BbsG_S11,BbsR_S11,BaB_A11,BaG_A11,BaR_A11,Tu_S11,T_S11,Uu_S11,U_S11,P_S11,T1_A11
2021-03-02T19:00:00Z,00000200,21000000,,,,,,,-000.07,0000.12,-000.28,16.4,23.7,,00.0,0655.7,30.8
2021-03-02T19:01:00Z,00000200,21000000,,,,,,,-000.27,-000.28,0000.02,16.4,23.7,,00.0,0655.7,30.8
2021-03-02T19:02:00Z,00000200,21000000,,,,,,,-000.04,-000.06,-000.18,16.4,23.7,,00.0,0655.7,30.8
2021-03-02T19:03:00Z,00000200,61000000,,,,,,,0000.47,0000.51,0000.28,16.4,23.7,,00.0,0655.7,30.8
2021-03-02T19:04:00Z,00000200,41000000,0000.99,0001.33,0000.75,0000.12,0000.31,0000.26,0000.16,-000.01,0000.20,16.5,23.5,,00.0,0656.6,30.8
2021-03-02T19:05:00Z,00000200,01000000,0002.00,0000.65,0000.82,0000.85,0000.16,0000.08,0000.78,0000.62,0000.44,16.5,23.5,,00.0,0656.7,30.8
2021-03-02T19:06:00Z,00000200,01000000,0001.08,0000.91,0000.45,0000.30,0000.30,-000.17,0000.35,0000.65,0000.13,16.5,23.4,,00.0,0656.7,30.8
2021-03-02T19:07:00Z,00000200,01000000,0001.45,0000.74,0000.75,0000.25,0000.33,0000.17,0000.65,0000.52,0000.60,16.4,23.4,,00.0,0656.7,30.8
2021-03-02T19:08:00Z,00000200,01000000,0000.71,0001.02,0000.64,0000.03,0000.24,0000.02,0000.29,0000.28,0000.24,16.3,23.4,,00.0,0656.7,30.8
2021-03-02T19:09:00Z,00000200,01000000,0001.67,0000.79,0000.46,0000.06,0000.44,0000.44,0000.61,0000.58,0000.42,16.3,23.3,,00.0,0656.7,30.8
2021-03-02T19:10:00Z,00000200,01000000,0001.84,0001.06,0000.47,0000.63,0000.19,-000.10,0000.24,0000.07,0000.36,16.2,23.3,,00.0,0656.7,30.8
2021-03-02T19:11:00Z,00000200,01000000,0001.07,0001.00,0000.40,0000.04,0000.16,0000.11,0000.06,0000.22,-000.40,16.2,23.2,,00.0,0656.8,30.7
2021-03-02T19:12:00Z,00000200,01000000,0001.75,0000.88,0000.39,0000.58,0000.08,0000.33,0000.59,0000.19,0000.42,16.1,23.2,,00.0,0656.8,30.7
2021-03-02T19:13:00Z,00000200,01000000,0000.91,0001.01,0000.33,0000.23,0000.21,0000.00,0000.33,0000.31,0000.44,16.2,23.2,,00.0,0656.8,30.7
2021-03-02T19:14:00Z,00000200,01000000,0001.10,0000.93,0000.75,0000.20,0000.30,0000.03,0000.76,0000.50,0000.39,16.2,23.2,,00.0,0656.9,30.7
2021-03-02T19:15:00Z,00000200,01000000,0001.32,0000.92,0000.65,-000.19,0000.33,-000.07,0000.18,0000.13,0000.46,16.3,23.2,,00.0,0656.9,30.8
2021-03-02T19:16:00Z,00000200,01000000,0001.46,0000.80,0000.76,0000.16,0000.20,0000.07,0000.19,0000.81,-000.01,16.3,23.3,,00.0,0656.9,30.8
2021-03-02T19:17:00Z,00000200,01000000,0001.51,0000.93,0000.79,0000.29,0000.18,0000.13,0000.76,0000.44,0000.41,16.3,23.3,,00.0,0656.9,30.8
2021-03-02T19:18:00Z,00000200,01000000,0001.60,0001.24,0000.60,0000.20,0000.11,0000.11,0000.38,0000.30,0000.38,16.4,23.3,,00.0,0657.0,30.8
2021-03-02T19:19:00Z,00000200,01000000,0001.15,0001.05,0000.81,-000.36,0000.26,0000.01,0000.61,0000.72,0000.35,16.4,23.3,,00.0,0657.0,30.8
2021-03-02T19:20:00Z,00000200,01000000,0001.24,0000.88,0000.62,0000.20,0000.36,0000.18,0000.58,0000.17,-000.01,16.5,23.4,,00.0,0657.0,30.8
2021-03-02T19:21:00Z,00000200,01000000,0000.64,0001.06,0000.85,0000.18,0000.33,0000.14,0000.16,0000.49,0000.63,16.5,23.4,,00.0,0657.0,30.8
2021-03-02T19:22:00Z,00000200,01000000,0001.38,0000.61,0000.72,0000.16,0000.17,-000.08,0000.86,0000.46,0000.36,16.6,23.4,,00.0,0657.0,30.8
2021-03-02T19:23:00Z,00000200,01000000,0001.94,0001.11,0000.47,0000.31,0000.29,0000.16,0000.10,0000.45,0000.49,16.6,23.5,,00.0,0657.0,30.8
2021-03-02T19:24:00Z,00000200,01000000,0001.46,0000.81,0000.73,0000.05,0000.33,0000.32,0000.73,0000.35,0000.14,16.7,23.5,,00.0,0657.0,30.8
2021-03-02T19:25:00Z,00000200,01000000,0001.00,0000.66,0000.40,-000.03,0000.11,0000.31,0000.35,0000.15,0000.24,16.7,23.5,,00.0,0657.0,30.8
2021-03-02T19:26:00Z,00000200,01000000,0001.44,0000.87,0000.57,-000.06,0000.28,0000.30,0000.53,0000.73,0000.29,16.7,23.5,,00.0,0657.1,30.8
2021-03-02T19:27:00Z,00000200,01000000,0001.01,0000.86,0000.56,0000.04,0000.35,0000.08,0000.63,0000.78,0000.44,16.7,23.5,,00.0,0657.1,30.8
2021-03-02T19:28:00Z,00000200,01000000,0000.91,0000.93,0000.61,-000.06,0000.33,0000.29,-000.00,-000.03,-000.06,16.7,23.5,,00.0,0657.1,30.8
2021-03-02T19:29:00Z,00000200,01000000,0000.75,0001.01,0000.81,0000.43,0000.16,0000.28,0000.46,0000.59,0000.70,16.7,23.5,,00.0,0657.1,30.8
2021-03-02T19:30:00Z,00000200,01000000,0000.70,0000.71,0000.55,-000.06,0000.20,0000.23,0000.84,0000.17,0000.27,16.6,23.5,,00.0,0657.1,30.8
2021-03-02T19:31:00Z,00000200,01000000,0001.26,0001.08,0000.49,-000.01,0000.16,0000.27,0000.17,0000.33,0000.00,16.5,23.4,,00.0,0657.1,30.8
2021-03-02T19:32:00Z,00000200,01000000,0001.36,0001.19,0000.64,0000.33,0000.27,0000.14,0000.60,0000.70,0000.63,16.4,23.4,,00.0,0657.1,30.8
2021-03-02T19:33:00Z,00000200,01000000,0001.71,0000.99,0000.57,0000.30,0000.24,-000.05,0000.83,0000.69,0000.37,16.4,23.4,,00.0,0657.1,30.8
2021-03-02T19:34:00Z,00000200,01000000,0001.64,0000.86,0000.72,0000.62,0000.48,-000.01,0000.48,0000.02,0000.34,16.3,23.4,,00.0,0657.1,30.8
2021-03-02T19:35:00Z,00000200,01000000,0001.04,0000.86,0000.60,0000.08,0000.26,0000.31,0000.37,0000.57,0000.19,16.3,23.3,,00.0,0657.1,30.8
2021-03-02T19:36:00Z,00000200,01000000,0000.73,0000.86,0000.30,-000.05,0000.05,0000.05,0000.48,0000.87,0000.31,16.2,23.3,,00.0,0657.1,30.8
2021-03-02T19:37:00Z,00000200,01000000,0001.85,0001.03,0000.54,-000.14,0000.18,0000.24,0000.41,0000.23,0000.51,16.1,23.3,,00.0,0657.1,30.8
2021-03-02T19:38:00Z,00000200,01000000,0001.41,0001.14,0000.88,0000.30,0000.42,0000.29,0000.49,0000.28,0000.28,16.1,23.2,,00.0,0657.1,30.7
2021-03-02T19:39:00Z,00000200,01000000,0001.05,0000.93,0000.50,0000.34,0000.47,0000.03,0000.93,0001.02,0000.33,16.0,23.2,,00.0,0657.1,30.7
2021-03-02T19:40:00Z,00000200,01000000,0001.20,0001.03,0000.53,-000.05,0000.16,-000.09,0000.42,0000.14,0000.56,16.0,23.2,,00.0,0657.0,30.7
2021-03-02T19:41:00Z,00000200,01000000,0001.51,0001.09,0000.97,0000.06,0000.15,0000.28,0000.41,0000.74,0000.52,15.9,23.1,,00.0,0657.0,30.7
2021-03-02T19:42:00Z,00000200,01000000,0001.27,0000.90,0000.70,0000.22,0000.23,0000.30,0001.08,0000.84,0000.62,15.9,23.1,,00.0,0657.0,30.7
2021-03-02T19:43:00Z,00000200,01000000,0001.52,0000.92,0000.75,0000.23,0000.02,0000.35,0000.58,0000.49,0000.45,16.0,23.1,,00.0,0656.9,30.7
2021-03-02T19:44:00Z,00000200,01000000,0002.16,0000.86,0000.62,0000.43,0000.08,0000.13,0000.68,0000.68,0000.12,16.0,23.1,,00.0,0656.9,30.7
2021-03-02T19:45:00Z,00000200,01000000,0001.39,0001.10,0000.65,0000.27,0000.16,0000.12,0000.36,0000.16,0000.43,16.1,23.1,,00.0,0656.9,30.7
2021-03-02T19:46:00Z,00000200,01000000,0001.30,0000.95,0000.54,0000.01,0000.34,0000.14,0000.99,0000.67,0000.40,16.1,23.1,,00.0,0656.9,30.7
2021-03-02T19:47:00Z,00000200,01000000,0002.20,0001.10,0000.41,-000.04,0000.42,0000.14,0000.60,0000.83,0000.68,16.2,23.2,,00.0,0657.0,30.7
2021-03-02T19:48:00Z,00000200,01000000,0001.93,0001.28,0000.64,0000.66,0000.30,0000.07,0000.40,0000.31,0000.31,16.2,23.2,,00.0,0657.0,30.8
2021-03-02T19:49:00Z,00000200,01000000,0001.34,0000.95,0000.58,0000.59,0000.10,0000.11,0000.95,0000.75,0000.07,16.3,23.2,,00.0,0657.0,30.8
2021-03-02T19:50:00Z,00000200,01000000,0002.04,0001.19,0000.74,0000.39,0000.26,0000.28,0000.69,0000.41,0000.77,16.3,23.2,,00.0,0657.0,30.8
2021-03-02T19:51:00Z,00000200,01000000,0001.83,0001.13,0000.59,0000.40,0000.44,0000.19,0000.30,0000.85,0000.29,16.4,23.2,,00.0,0657.0,30.8
2021-03-02T19:52:00Z,00000200,01000000,0001.36,0001.42,0000.60,0000.15,0000.12,0000.12,0000.84,0000.63,0000.57,16.4,23.3,,00.0,0657.0,30.8
2021-03-02T19:53:00Z,00000200,01000000,0001.21,0001.04,0000.81,0000.05,0000.15,-000.01,0000.85,0000.40,0000.34,16.4,23.3,,00.0,0657.0,30.8
2021-03-02T19:54:00Z,00000200,01000000,0001.94,0001.00,0000.76,0000.34,0000.14,0000.29,0000.27,0000.53,0000.63,16.5,23.3,,00.0,0657.0,30.8
2021-03-02T19:55:00Z,00000200,01000000,0001.57,0001.07,0000.89,-000.04,0000.09,0000.35,0001.03,0001.06,0000.39,16.5,23.3,,00.0,0657.0,30.8
2021-03-02T19:56:00Z,00000200,01000000,0001.51,0001.23,0000.53,0000.24,0000.37,0000.19,0000.31,0000.45,0000.44,16.5,23.3,,00.0,0657.0,30.8
2021-03-02T19:57:00Z,00000200,41000000,,,,,,,0000.24,0000.02,0000.23,16.6,23.4,,00.0,0657.0,30.8
2021-03-02T19:58:00Z,00000200,61000000,,,,,,,-000.02,-000.57,-000.35,16.3,23.5,,00.0,0656.0,30.8
2021-03-02T19:59:00Z,00000200,21000000,,,,,,,-000.36,0000.23,-000.11,16.2,23.6,,00.0,0656.1,30.8
